Back to catalog

STARLINK-1569

AliveCommunicationsVLEO
NORAD 46039·PAYLOAD·🇺🇸 United States

Launched Aug 7, 2020 from Cape Canaveral Space Force Station

Loading…

Next Passes (next 24 hours)

TLE

FreshSource: CelesTrak SupGP

Epoch: Sep 14, 2026, 20:57 UTC

1 46039C 20055N   26257.87340278 -.00032818  00000+0 -10552-2 0  2570
2 46039  53.1581 326.9991 0001146  82.5557 207.4246 15.31722064    17

Track STARLINK-1569 in real time with AllMySat

Download on the App Store